Waarnemingen

Advertentie
Mijn weer
Leuchars, Groot Brittannië (3171): temperatuur & dauwpunt: 17.05.2018 21:00:00 - 23.05.2018 21:00:00 (BST)Leuchars, Groot Brittannië (3171): temperatuur -20cm & temperatuur -100cm: 17.05.2018 21:00:00 - 23.05.2018 21:00:00 (BST)Leuchars, Groot Brittannië (3171): windsnelheid & windstoten: 17.05.2018 21:00:00 - 23.05.2018 21:00:00 (BST)Leuchars, Groot Brittannië (3171): windrichting: 17.05.2018 21:00:00 - 23.05.2018 21:00:00 (BST)Leuchars, Groot Brittannië (3171): luchtdruk: 17.05.2018 21:00:00 - 23.05.2018 21:00:00 (BST)Leuchars, Groot Brittannië (3171): zicht: 17.05.2018 21:00:00 - 23.05.2018 21:00:00 (BST)Leuchars, Groot Brittannië (3171): Zonneschijnduur: 17.05.2018 21:00:00 - 23.05.2018 21:00:00 (BST)Leuchars, Groot Brittannië (3171): neerslag: 17.05.2018 21:00:00 - 23.05.2018 21:00:00 (BST)
Datum & Tijd tt [°C] td [°C] tt -20cm [°C] tt -100cm [°C] ff [km/u] ff [kn] fx [km/u] fx [kn] dd ppp [hPa] vv [km] sd [min] rr [mm]
23.05.2018 21:00:00 8,9 7,0 - - 16 9 - - OZO 1028,7 10 0 0,0
23.05.2018 20:00:00 9,3 6,6 - - 18 10 - - ZO 1028,6 10 30 0,0
23.05.2018 19:00:00 10,0 6,7 - - 21 11 - - OZO 1028,5 35 60 0,0
23.05.2018 18:00:00 10,3 6,7 - - 18 10 - - OZO 1028,6 10 60 0,0
23.05.2018 17:00:00 10,6 6,4 - - 21 11 - - OZO 1028,9 10 60 0,0
23.05.2018 16:00:00 11,7 7,0 - - 18 10 - - OZO 1029,0 10 60 0,0
23.05.2018 15:00:00 11,7 6,9 - - 16 9 - - OZO 1029,3 10 60 0,0
23.05.2018 14:00:00 11,8 6,8 - - 15 8 - - OZO 1029,3 30 42 0,0
23.05.2018 13:00:00 11,1 6,7 - - 15 8 - - OZO 1029,4 10 0 0,0
23.05.2018 12:00:00 10,5 6,3 - - 13 7 - - ZO 1029,5 10 0 0,0
23.05.2018 11:00:00 10,2 6,3 - - 13 7 - - ZO 1029,2 10 0 0,0
23.05.2018 10:00:00 9,7 6,1 10,2 10,5 13 7 - - OZO 1029,2 10 0 0,0
23.05.2018 09:00:00 9,5 6,0 - - 13 7 - - OZO 1029,0 10 0 0,0
23.05.2018 08:00:00 9,6 6,0 - - 13 7 - - O 1028,4 10 0 0,0
23.05.2018 07:00:00 9,6 6,1 - - 9 5 - - O 1028,0 10 0 0,0
23.05.2018 06:00:00 9,4 5,9 - - 9 5 - - O 1027,6 10 0 0,0
23.05.2018 05:00:00 9,3 6,0 - - 8 4 - - O 1027,5 45 0 0,0
23.05.2018 04:00:00 9,4 6,1 - - 11 6 - - O 1027,5 10 0 0,0
23.05.2018 03:00:00 9,4 6,5 - - 13 7 - - O 1027,3 10 0 0,0
23.05.2018 02:00:00 9,2 6,7 - - 9 5 - - O 1027,4 10 0 0,0
23.05.2018 01:00:00 9,2 6,9 - - 9 5 - - O 1027,5 10 - 0,0
23.05.2018 00:00:00 9,3 6,9 - - 15 8 - - O 1027,3 10 0 0,0
22.05.2018 23:00:00 9,4 6,7 - - 15 8 - - O 1027,2 10 0 0,0
22.05.2018 22:00:00 9,4 6,9 - - 18 10 - - O 1026,8 10 0 0,0
22.05.2018 21:00:00 9,5 7,1 - - 18 10 - - O 1026,2 25 0 0,0
22.05.2018 20:00:00 9,9 7,0 - - 22 12 - - O 1025,8 10 6 0,0
22.05.2018 19:00:00 10,6 7,4 - - 22 12 - - O 1025,7 10 42 0,0
22.05.2018 18:00:00 11,0 7,3 - - 26 14 - - O 1025,6 30 42 0,0
22.05.2018 17:00:00 11,5 7,4 - - 28 15 - - O 1025,5 10 60 0,0
22.05.2018 16:00:00 12,1 7,6 - - 29 16 - - O 1025,5 10 36 0,0
22.05.2018 15:00:00 11,4 7,1 - - 29 16 - - O 1025,3 35 60 0,0
22.05.2018 14:00:00 12,1 7,6 - - 31 17 - - O 1025,1 10 60 0,0
22.05.2018 13:00:00 12,0 7,3 - - 26 14 - - O 1025,0 10 54 0,0
22.05.2018 12:00:00 12,5 6,9 - - 28 15 - - O 1024,9 10 48 0,0
22.05.2018 11:00:00 12,4 7,0 - - 26 14 - - ONO 1024,9 10 18 0,0
22.05.2018 10:00:00 11,3 6,3 10,2 10,4 24 13 - - O 1024,7 10 24 0,0
22.05.2018 09:00:00 11,4 5,9 - - 24 13 - - ONO 1024,6 10 60 0,0
22.05.2018 08:00:00 10,1 5,5 - - 16 9 - - ONO 1024,7 30 48 0,0
22.05.2018 07:00:00 8,8 5,9 - - 11 6 - - NO 1024,6 10 0 0,0
22.05.2018 06:00:00 8,3 5,6 - - 13 7 - - NO 1024,1 10 0 0,0
22.05.2018 05:00:00 8,4 5,9 - - 9 5 - - ONO 1023,9 10 0 0,0
22.05.2018 04:00:00 8,2 5,8 - - 11 6 - - ONO 1023,8 50 0 0,0
22.05.2018 03:00:00 8,3 5,8 - - 15 8 - - ONO 1023,3 10 0 0,0
22.05.2018 02:00:00 8,8 6,0 - - 16 9 - - O 1022,9 10 0 0,0
22.05.2018 01:00:00 9,1 5,8 - - 9 5 - - O 1022,4 10 - 0,0
22.05.2018 00:00:00 9,6 6,5 - - 13 7 - - ONO 1022,0 10 0 0,0
21.05.2018 23:00:00 10,0 7,4 - - 18 10 - - ONO 1021,7 10 0 0,0
21.05.2018 22:00:00 10,2 8,7 - - 18 10 - - ONO 1021,1 10 0 0,0
21.05.2018 21:00:00 10,7 9,3 - - 18 10 - - ONO 1020,4 10 0 0,0
21.05.2018 20:00:00 11,1 9,3 - - 11 6 - - ONO 1019,2 10 36 0,0
21.05.2018 19:00:00 12,5 9,8 - - 9 5 - - ONO 1018,6 10 42 0,0
21.05.2018 18:00:00 13,7 10,0 - - 13 7 - - O 1018,3 10 54 0,0
21.05.2018 17:00:00 14,8 10,2 - - 18 10 - - O 1018,1 8 60 0,0
21.05.2018 16:00:00 15,8 10,0 - - 16 9 - - O 1018,2 10 54 0,0
21.05.2018 15:00:00 15,4 10,3 - - 21 11 - - O 1018,1 10 60 0,0
21.05.2018 14:00:00 16,7 7,2 - - 22 12 - - O 1017,9 10 60 0,0
21.05.2018 13:00:00 15,4 9,2 - - 18 10 - - O 1018,0 14 60 0,0
21.05.2018 12:00:00 14,4 7,8 - - 15 8 - - OZO 1018,0 10 60 0,0
21.05.2018 11:00:00 12,5 9,5 - - 11 6 - - ONO 1018,3 13 60 0,0
21.05.2018 10:00:00 10,3 9,0 10,0 10,2 15 8 - - ONO 1018,6 0,7 48 0,0
21.05.2018 09:00:00 11,8 9,3 - - 13 7 - - ONO 1018,5 8 60 0,0
21.05.2018 08:00:00 12,3 8,4 - - 8 4 - - N 1018,4 10 60 0,0
21.05.2018 07:00:00 9,8 8,2 - - 4 2 - - NNO 1018,2 10 48 0,0
21.05.2018 06:00:00 7,6 5,9 - - 5 3 - - NNO 1018,0 10 0 0,0
21.05.2018 05:00:00 7,6 4,9 - - 8 4 - - ONO 1017,8 10 0 0,0
21.05.2018 04:00:00 9,4 5,3 - - 2 1 - - O 1017,9 10 0 0,0
21.05.2018 03:00:00 11,2 5,8 - - 8 4 - - W 1018,0 10 0 0,0
21.05.2018 02:00:00 12,0 7,0 - - 4 2 - - O 1018,3 10 0 0,0
21.05.2018 01:00:00 12,9 6,1 - - 8 4 - - ZZO 1018,4 10 - 0,0
21.05.2018 00:00:00 13,4 5,7 - - 9 5 - - ZZO 1018,6 10 0 0,0
20.05.2018 23:00:00 13,9 4,7 - - 5 3 - - WZW 1018,6 10 0 0,0
20.05.2018 22:00:00 14,6 4,9 - - 9 5 - - WZW 1018,6 10 0 0,0
20.05.2018 21:00:00 15,3 5,2 - - 16 9 - - ZW 1018,2 10 0 0,0
20.05.2018 20:00:00 15,8 6,6 - - 16 9 - - ZZW 1017,9 10 0 0,0
20.05.2018 19:00:00 16,8 7,7 - - 18 10 - - ZZW 1017,8 10 0 0,0
20.05.2018 18:00:00 17,3 7,3 - - 26 14 - - ZZW 1017,7 10 6 0,0
20.05.2018 17:00:00 18,1 8,6 - - 26 14 - - ZZW 1017,8 10 6 0,0
20.05.2018 16:00:00 17,3 8,4 - - 22 12 46 25 ZZW 1018,0 10 0 0,0
20.05.2018 15:00:00 17,8 7,7 - - 26 14 - - ZZW 1018,2 10 18 0,0
20.05.2018 14:00:00 17,3 7,6 - - 29 16 - - ZZW 1018,4 10 0 0,0
20.05.2018 13:00:00 15,8 7,2 - - 26 14 - - ZZW 1018,6 10 0 0,0
20.05.2018 12:00:00 16,0 7,5 - - 26 14 - - ZZW 1018,5 10 0 0,0
20.05.2018 11:00:00 15,7 7,3 - - 24 13 - - ZZW 1018,5 10 0 0,0
20.05.2018 10:00:00 15,2 6,8 10,0 10,0 22 12 - - ZZW 1018,7 10 0 0,0
20.05.2018 09:00:00 15,1 6,1 - - 18 10 - - ZW 1018,6 10 0 0,0
20.05.2018 08:00:00 14,7 6,3 - - 15 8 - - ZW 1018,5 10 18 0,0
20.05.2018 07:00:00 13,8 6,1 - - 15 8 - - ZW 1018,1 10 0 0,0
20.05.2018 06:00:00 13,2 6,2 - - 9 5 - - WZW 1017,7 10 0 0,0
20.05.2018 05:00:00 12,5 6,1 - - 5 3 - - Z 1017,4 10 0 0,0
20.05.2018 04:00:00 12,5 5,7 - - 4 2 - - ZZW 1017,8 50 0 0,0
20.05.2018 03:00:00 12,3 6,1 - - 11 6 - - ZZW 1017,9 10 0 0,0
20.05.2018 02:00:00 12,4 5,6 - - 15 8 - - W 1018,0 10 0 0,0
20.05.2018 01:00:00 12,1 6,0 - - 8 4 - - Z 1017,9 10 - 0,0
20.05.2018 00:00:00 12,6 5,9 - - 11 6 - - ZW 1018,1 10 0 0,0
19.05.2018 23:00:00 14,7 5,2 - - 24 13 - - ZW 1018,0 10 0 0,0
19.05.2018 22:00:00 14,6 6,0 - - 16 9 - - ZW 1018,4 10 0 0,0
19.05.2018 21:00:00 15,5 5,5 - - 22 12 - - ZW 1018,2 10 0 0,0
19.05.2018 20:00:00 16,5 5,1 - - 16 9 - - ZZW 1018,3 10 0 0,0
19.05.2018 19:00:00 18,3 4,7 - - 26 14 - - WZW 1018,6 10 0 0,0
19.05.2018 18:00:00 19,2 7,6 - - 22 12 - - ZW 1018,7 10 0 0,0
19.05.2018 17:00:00 19,4 8,0 - - 15 8 - - ZZW 1019,1 10 24 0,0
19.05.2018 16:00:00 16,4 9,4 - - 22 12 - - OZO 1019,6 10 60 0,0
19.05.2018 15:00:00 18,3 7,7 - - 22 12 - - ZZO 1020,1 10 60 0,0
19.05.2018 14:00:00 19,0 6,5 - - 21 11 - - ZZW 1020,5 10 60 0,0
19.05.2018 13:00:00 19,5 7,3 - - 22 12 - - ZZW 1020,8 10 60 0,0
19.05.2018 12:00:00 18,7 7,7 - - 16 9 - - ZW 1021,6 10 60 0,0
19.05.2018 11:00:00 17,5 7,4 - - 15 8 - - WZW 1022,1 10 60 0,0
19.05.2018 10:00:00 16,5 6,6 9,7 10,0 15 8 - - WZW 1022,5 10 60 0,0
19.05.2018 09:00:00 15,1 8,0 - - 11 6 - - WZW 1022,7 10 60 0,0
19.05.2018 08:00:00 12,8 7,8 - - 8 4 - - W 1022,8 35 60 0,0
19.05.2018 07:00:00 10,6 7,3 - - 13 7 - - W 1022,8 10 60 0,0
19.05.2018 06:00:00 7,2 5,8 - - 8 4 - - WZW 1022,7 10 0 0,0
19.05.2018 05:00:00 8,5 6,5 - - 9 5 - - W 1022,4 10 0 0,0
19.05.2018 04:00:00 9,4 7,0 - - 8 4 - - W 1022,7 10 0 0,0
19.05.2018 03:00:00 8,4 6,2 - - 5 3 - - W 1022,8 10 0 0,0
19.05.2018 02:00:00 10,1 6,9 - - 8 4 - - W 1022,8 10 0 0,0
19.05.2018 01:00:00 7,8 6,2 - - 4 2 - - WNW 1023,1 10 - 0,0
19.05.2018 00:00:00 8,9 6,9 - - 4 2 - - N 1023,0 10 0 0,0
18.05.2018 23:00:00 12,7 6,8 - - 13 7 - - W 1023,0 10 0 0,0
18.05.2018 22:00:00 13,9 6,8 - - 11 6 - - W 1023,0 10 0 0,0
18.05.2018 21:00:00 14,3 6,9 - - 5 3 - - WZW 1023,1 10 0 0,0
18.05.2018 20:00:00 14,5 6,5 - - 11 6 - - ZW 1023,1 10 42 0,0
18.05.2018 19:00:00 15,3 6,4 - - 15 8 - - Z 1023,0 10 30 0,0
18.05.2018 18:00:00 16,4 6,4 - - 18 10 - - Z 1022,8 10 36 0,0
18.05.2018 17:00:00 16,8 5,3 - - 21 11 - - Z 1022,9 10 48 0,0
18.05.2018 16:00:00 18,7 3,1 - - 13 7 - - W 1023,1 10 60 0,0
18.05.2018 15:00:00 17,9 1,7 - - 18 10 - - WZW 1023,3 10 60 0,0
18.05.2018 14:00:00 17,5 3,6 - - 9 5 - - WNW 1023,7 10 60 0,0
18.05.2018 13:00:00 15,5 7,3 - - 11 6 - - OZO 1024,2 10 54 0,0
18.05.2018 12:00:00 16,2 6,3 - - 13 7 - - ZW 1024,4 10 60 0,0
18.05.2018 11:00:00 13,7 6,6 - - 8 4 - - OZO 1024,9 10 54 0,0
18.05.2018 10:00:00 12,4 5,5 9,5 9,9 8 4 - - W 1025,3 10 36 0,0
18.05.2018 09:00:00 11,0 5,3 - - 5 3 - - WNW 1025,6 10 60 0,0
18.05.2018 08:00:00 9,4 7,4 - - 5 3 - - W 1025,8 10 60 0,0
18.05.2018 07:00:00 6,3 5,5 - - 8 4 - - W 1025,6 10 36 0,0
18.05.2018 06:00:00 4,8 4,3 - - 9 5 - - W 1025,7 10 0 0,0
18.05.2018 05:00:00 2,5 2,1 - - 8 4 - - W 1026,0 10 0 0,0
18.05.2018 04:00:00 3,1 2,7 - - 2 1 - - WNW 1026,1 10 0 0,0
18.05.2018 03:00:00 3,5 3,2 - - 2 1 - - W 1026,5 9 0 0,0
18.05.2018 02:00:00 3,6 3,1 - - 4 2 - - N 1027,0 10 0 0,0
18.05.2018 01:00:00 4,5 3,6 - - 2 1 - - NW 1027,3 10 - 0,0
18.05.2018 00:00:00 5,3 3,8 - - 5 3 - - NO 1027,9 10 0 0,0
17.05.2018 23:00:00 8,5 5,5 - - 9 5 - - ZO 1028,0 10 0 0,0
17.05.2018 22:00:00 9,0 5,0 - - 13 7 - - OZO 1028,2 10 0 0,0
17.05.2018 21:00:00 10,1 4,6 - - 9 5 - - ZO 1028,2 10 36 0,0

tt = temperatuur
td = dauwpunt
tt -20cm = temperatuur -20cm
tt -100cm = temperatuur -100cm
ff = windsnelheid
fx = windstoten
dd = windrichting
ppp = luchtdruk
vv = zicht
sd = Zonneschijnduur
rr = neerslag

Weerstations in de omgeving